Regional Weather Roundup
Issued by NWS

Home | Current Version | Previous Version | Text Only | Print | Product List | Glossary On
Versions: 1 2 3 4 5 6 7 8 9 10 11 12 13 14 15 16 17 18 19 20 21 22 23 24 25 26 27 28 29 30 31 32 33 34 35 36 37 38 39 40 41 42 43 44 45 46 47 48 49 50
000
ASUS45 KREV 070610
RWRNV
NEVADA REGIONAL WEATHER ROUNDUP
NATIONAL WEATHER SERVICE RENO NV
1000 PM PST SAT FEB 06 2016

NOTE: "FAIR" INDICATES FEW OR NO CLOUDS BELOW 12,000 FEET WITH NO
SIGNIFICANT WEATHER AND/OR OBSTRUCTIONS TO VISIBILITY.

NVZ001-003-004-070700-
WESTERN NEVADA

CITY           SKY/WX    TMP DP  RH WIND       PRES   REMARKS
RENO           PTCLDY    37  25  61 W3        30.46R
6HR MIN TEMP:  37; 6HR MAX TEMP:  53;

CARSON CITY    FAIR      32  28  86 CALM      30.47R
MINDEN         FAIR      32  30  93 SE6       30.48R
SLIDE MTN        N/A     32  16  51 N17         N/A
PYRAMID LAKE     N/A     39 N/A N/A W6          N/A
FALLON         CLEAR     30  27  88 S3        30.47R
6HR MIN TEMP:  30; 6HR MAX TEMP:  44;

LOVELOCK       CLEAR     28  24  85 CALM      30.47R
6HR MIN TEMP:  28; 6HR MAX TEMP:  50;

HAWTHORNE      CLEAR     34  30  86 CALM      30.48R
$$

NVZ002-CAZ072-073-070700-
NORTHERN AND CENTRAL SIERRA

CITY           SKY/WX    TMP DP  RH WIND       PRES   REMARKS
S. LAKE TAHOE  CLEAR     27  23  85 CALM      30.46R
6HR MIN TEMP:  26; 6HR MAX TEMP:  45;

TRUCKEE        CLEAR     28  23  80 CALM      30.47S
SQUAW VLY 8000   N/A     34  19  55 NE5         N/A
SUSANVILLE     CLEAR     32  32 100 W3        30.48R
BLUE CANYON    CLEAR     48  21  34 VRB5      30.41S
MAMMOTH LAKES  FAIR      28  19  69 CALM      30.47S
BRIDGEPORT     FAIR      27  20  75 CALM      30.46R
$$

NVZ030-031-036-070700-
NORTHERN NEVADA

CITY           SKY/WX    TMP DP  RH WIND       PRES   REMARKS
ELKO           CLEAR     12   9  87 CALM      30.51R
6HR MIN TEMP:  11; 6HR MAX TEMP:  28;

WINNEMUCCA     PTCLDY    30  24  78 E6        30.47S
6HR MIN TEMP:  30; 6HR MAX TEMP:  42;

WENDOVER       CLEAR     27  21  80 CALM      30.49R
$$

NVZ035-037-070700-
CENTRAL NEVADA

CITY           SKY/WX    TMP DP  RH WIND       PRES   REMARKS
ELY            PTCLDY    10   4  76 S18       30.46R WCI  -8
6HR MIN TEMP:   9; 6HR MAX TEMP:  32;

EUREKA           N/A      1  52 100 SW7       30.48R
6HR MIN TEMP:   1; 6HR MAX TEMP:   9;

$$

NVZ013-014-070700-
SOUTH CENTRAL NEVADA

CITY           SKY/WX    TMP DP  RH WIND       PRES   REMARKS
TONOPAH        PTCLDY    26  18  71 N9        30.45R
6HR MIN TEMP:  19; 6HR MAX TEMP:  34;

$$

NVZ017-020-022-070700-
SOUTHERN NEVADA

CITY           SKY/WX    TMP DP  RH WIND       PRES   REMARKS
LAS VEGAS      CLEAR     48  27  44 W7        30.31S
6HR MIN TEMP:  48; 6HR MAX TEMP:  61;

N. LAS VEGAS   CLEAR     51  24  34 N10       30.34S
6HR MIN TEMP:  49; 6HR MAX TEMP:  62;

NELLIS AFB     CLEAR     46  31  55 SW6       30.35R
6HR MIN TEMP:  45; 6HR MAX TEMP:  60;

HENDERSON      CLEAR     43  26  51 VRB3      30.37R
6HR MIN TEMP:  42; 6HR MAX TEMP:  59;

MERCURY        CLEAR     44  26  49 NE13      30.36R
6HR MIN TEMP:  43; 6HR MAX TEMP:  60;

$$



USA.gov is the U.S. government's official web portal to all federal, state and local government web resources and services.